Tracking 19720 objects as of 26-Jun-2019
HD Live streaming from Space Station
objects crossing your sky now

COSMOS 823

Track COSMOS 823 now!
10-day predictions
COSMOS 823 is classified as:


NORAD ID: 8873
Int'l Code: 1976-051A
Perigee: 977.3 km
Apogee: 1,012.4 km
Inclination: 83.0 °
Period: 104.9 minutes
Semi major axis: 7365 km
RCS: 1.7893 m2 (large)
Launch date: June 2, 1976
Source: Commonwealth of Independent States (former USSR) (CIS)
Launch site: PLESETSK MISSILE AND SPACE COMPLEX (PKMTR)
aabbcc
Your satellite tracking list
Your tracking list is empty




NASA's NSSDC Master Catalog

Two Line Element Set (TLE):
1  8873U 76051A   19176.17022354  .00000008  00000-0 -77905-5 0  9995
2  8873  82.9659 213.1280 0023848 109.8424 308.6141 13.73304842157547
Source of the keplerian elements: AFSPC